Flag for Germany Weather past 2 weeks in Amberg, Bavaria, Germany

Now
46 °F

Light rain. Mostly cloudy.


Feels Like: 42 °F
Forecast: 39 / 48 °F
Wind: 8 mph from Southwest

Location: Hohenfels

Current Time: Mar 29, 2015 at 6:44:14 PM

Latest Report: Mar 29, 2015 at 5:58 PM


Visibility: N/A

Pressure: 29.65 "Hg

Humidity: 100%

Dew point: 46 °F

Location of AmbergLocation

Historic Weather in Amberg — Graph

°F

Amberg temperature yesterday

Maximum temperature yesterday: 52 °F (at 3:58 PM)
Minimum temperature yesterday: 36 °F (at 6:58 AM)
Average temperature yesterday: 44 °F

Past Weeks' High & Low Weather Summary

 TemperatureHumidityPressure
High63 °F (Mar 25, 1:58 PM)100% (Mar 18, 1:58 AM)30.34 "Hg (Mar 18, 1:58 AM)
Low25 °F (Mar 21, 4:58 AM)31% (Mar 16, 3:58 PM)29.59 "Hg (Mar 25, 10:58 PM)
Average42 °F74%30.05 "Hg
* Reported Mar 14 3:58 PM — Mar 29 4:58 PM, Amberg, Weather by CustomWeather, © 2015

Note: Actual official high and low records may vary slightly from our data, if they occured in-between our weather recording intervals... More about our weather records

Advertising

Amberg weather history for previous 24 hours

 ConditionsComfort  
Time TempWeatherWind HumidityBarometerVisibility
4:58 PM
Sun, Mar 29
47 °FLight rain. Mostly cloudy.8 mph96%29.68 "HgN/A
3:58 PM48 °FLight rain. More clouds than sun.7 mph100%29.70 "HgN/A
2:58 PM49 °FLight rain. Partly sunny.5 mph97%29.73 "HgN/A
1:58 PM49 °FRain. Mostly cloudy.5 mph97%29.75 "HgN/A
1:02 PM50 °FLight rain. Cloudy.5 mph94%29.75 "HgN/A
12:02 PM50 °FMostly cloudy.8 mph88%29.77 "HgN/A
11:58 AM49 °FLight rain. Cloudy.10 mph90%29.79 "HgN/A
10:58 AM49 °FMostly cloudy.6 mph90%29.82 "HgN/A
9:58 AM47 °FOvercast.9 mph96%29.84 "HgN/A
8:58 AM46 °FOvercast.7 mph93%29.86 "HgN/A
8:00 AM46 °FMostly cloudy.5 mph93%29.85 "HgN/A
7:58 AM46 °FMostly cloudy.6 mph99%29.88 "HgN/A
6:58 AM45 °FOvercast.5 mph99%29.88 "HgN/A
5:58 AM46 °FLight rain. Fog.6 mph99%29.89 "Hg6 mi
4:58 AM45 °FOvercast.3 mph97%29.91 "HgN/A
3:58 AM45 °FOvercast.3 mph98%29.95 "HgN/A
1:58 AM43 °FLow clouds.3 mph100%29.98 "HgN/A
12:58 AM43 °FLight rain. Fog.6 mph92%29.98 "Hg5 mi
11:58 PM
Sat, Mar 28
45 °FMostly cloudy.6 mph76%30.00 "HgN/A
10:58 PM46 °FPassing clouds.5 mph70%30.03 "HgN/A
9:58 PM41 °FLight rain. Mostly cloudy.1 mph76%30.04 "HgN/A
8:58 PM41 °FPassing clouds.2 mph72%30.04 "HgN/A
7:58 PM41 °FPartly cloudy.2 mph74%30.06 "HgN/A
6:58 PM43 °FPassing clouds.3 mph69%30.06 "HgN/A
Weather by CustomWeather, © 2015

See weather overviewHow to use our weather pages